TimeMDT,TemperatureF,Dew PointF,Humidity,Sea Level PressureIn,VisibilityMPH,Wind Direction,Wind SpeedMPH,Gust SpeedMPH,PrecipitationIn,Events,Conditions,WindDirDegrees,DateUTC
12:53 AM,34.0,28.0,79,30.46,10.0,Calm,Calm,-,N/A,,Clear,0,2013-10-05 06:53:00
1:53 AM,32.0,27.0,82,30.47,10.0,WSW,3.5,-,N/A,,Clear,250,2013-10-05 07:53:00
2:53 AM,32.0,26.1,79,30.47,10.0,Calm,Calm,-,N/A,,Clear,0,2013-10-05 08:53:00
3:53 AM,30.9,26.1,82,30.44,10.0,Calm,Calm,-,N/A,,Clear,0,2013-10-05 09:53:00
4:53 AM,30.9,26.1,82,30.45,10.0,Calm,Calm,-,N/A,,Clear,0,2013-10-05 10:53:00
5:53 AM,30.0,25.0,82,30.45,10.0,Calm,Calm,-,N/A,,Clear,0,2013-10-05 11:53:00
6:53 AM,28.9,24.1,82,30.47,10.0,Calm,Calm,-,N/A,,Clear,0,2013-10-05 12:53:00
7:53 AM,30.0,25.0,82,30.48,10.0,Calm,Calm,-,N/A,,Clear,0,2013-10-05 13:53:00
8:53 AM,33.1,27.0,78,30.49,10.0,Calm,Calm,-,N/A,,Clear,0,2013-10-05 14:53:00
9:53 AM,39.0,30.0,70,30.48,10.0,Calm,Calm,-,N/A,,Clear,0,2013-10-05 15:53:00
10:53 AM,43.0,30.0,60,30.47,10.0,Calm,Calm,-,N/A,,Clear,0,2013-10-05 16:53:00
11:53 AM,48.0,26.1,42,30.45,10.0,East,6.9,-,N/A,,Clear,90,2013-10-05 17:53:00
12:53 PM,53.1,26.1,35,30.42,10.0,ESE,13.8,-,N/A,,Clear,110,2013-10-05 18:53:00
1:53 PM,57.9,17.1,20,30.39,10.0,West,9.2,-,N/A,,Clear,260,2013-10-05 19:53:00
2:53 PM,60.1,18.0,20,30.36,10.0,WSW,5.8,19.6,N/A,,Clear,250,2013-10-05 20:53:00
3:53 PM,63.0,16.0,16,30.33,10.0,WSW,13.8,-,N/A,,Clear,250,2013-10-05 21:53:00
4:53 PM,61.0,18.0,19,30.34,10.0,West,10.4,-,N/A,,Clear,260,2013-10-05 22:53:00
5:53 PM,61.0,26.1,26,30.33,10.0,NW,3.5,-,N/A,,Clear,310,2013-10-05 23:53:00
6:53 PM,52.0,33.1,49,30.36,10.0,Variable,3.5,-,N/A,,Clear,0,2013-10-06 00:53:00
7:53 PM,50.0,30.9,48,30.37,10.0,NNW,6.9,-,N/A,,Clear,330,2013-10-06 01:53:00
8:53 PM,48.0,32.0,54,30.38,10.0,SSW,5.8,-,N/A,,Clear,210,2013-10-06 02:53:00
9:53 PM,46.9,30.9,54,30.38,10.0,Calm,Calm,-,N/A,,Clear,0,2013-10-06 03:53:00
10:53 PM,43.0,30.9,62,30.38,10.0,Calm,Calm,-,N/A,,Clear,0,2013-10-06 04:53:00
11:53 PM,42.1,30.9,65,30.38,10.0,SE,3.5,-,N/A,,Clear,140,2013-10-06 05:53:00